Regional Weather Roundup
Issued by NWS Sterling, VA

Home | Current Version | Previous Version | Text Only | Print | Product List | Glossary Off
Versions: 1 2 3 4 5 6 7 8 9 10 11 12 13 14 15 16 17 18 19 20 21 22 23 24 25 26 27 28 29 30 31 32 33 34 35 36 37 38 39 40 41 42 43 44 45 46 47 48 49 50

000
ASUS41 KLWX 090310
RWRLWX

REGIONAL WEATHER ROUNDUP
NATIONAL WEATHER SERVICE BALTIMORE MD/WASHINGTON DC
1000 PM EST MON FEB 08 2016

Note: "FAIR" indicates few or no clouds below 12,000 feet
with no significant weather and/or obstructions to visibility.
 TC=TEMPERATURE CELSIUS

 * =Non NWS site. Station does not report precipitation (e.g. rain,
    snow, etc.), thunder, or fog.

DCZ001-MDZ009-015-VAZ040>042-051-053>054-090400-
WASHINGTON METRO

CITY           SKY/WX    TMP DP  RH WIND       PRES   REMARKS
WASHINGTON NAT LGT RAIN  39  34  82 SE6       29.70F
DULLES         DRIZZLE   39  31  72 SE8       29.67F
ANDREWS AFB    LGT RAIN  38  34  87 SE8       29.68F
FT BELVOIR     FAIR      39  33  80 SE6       29.69F
QUANTICO       LGT RAIN  40  34  79 S13       29.71S
COLLEGE PARK*  CLOUDY    41  34  75 SE5       29.69F
LEESBURG*      CLOUDY    41  36  81 SE7       29.68S
MANASSAS*      CLOUDY    39  34  81 SE7       29.68S
GAITHERSBURG*  CLOUDY    37  30  75 SE7       29.71S

$$

MDZ006>007-011-014-090400-
BALTIMORE METRO

CITY           SKY/WX    TMP DP  RH WIND       PRES   REMARKS
BWI AIRPORT    CLOUDY    38  34  85 S6        29.70S
MD SCIENCE CTR   N/A     40  34  79 MISG      29.71S
MARTIN STATE   DRIZZLE   39  37  93 E7        29.73
ANNAPOLIS      LGT RAIN  38  35  89 S13       29.71S
FORT MEADE*    CLOUDY    37  34  87 SE3       29.72S

$$

MDZ012-015-019>023-090400-
MARYLAND EASTERN SHORE

CITY           SKY/WX    TMP DP  RH WIND       PRES   REMARKS
OCEAN CITY     CLOUDY    39  34  82 SE9       29.74F
SALISBURY      CLOUDY    35  34  96 E7        29.72F
BAY BRIDGE AP* LGT RAIN  37  34  87 SE9       29.72S
CAMBRIDGE*     CLOUDY    36  32  87 E8        29.71F
EASTON*        DRIZZLE   37  37 100 SE6       29.76F

$$

MDZ017>025-090400-
SOUTHERN MARYLAND

CITY           SKY/WX    TMP DP  RH WIND       PRES   REMARKS
PATUXENT RIVER CLOUDY    39  33  79 SE14      29.70F
ST INIGOES     CLOUDY    39  35  86 E8        29.69F
LEONARDTOWN*   CLOUDY    36  34  93 SE7       29.71F

$$

MDZ003>005-090400-
NORTH CENTRAL MARYLAND

CITY           SKY/WX    TMP DP  RH WIND       PRES   REMARKS
FREDERICK*     CLOUDY    37  34  87 SE3       29.70S
HAGERSTOWN APT CLOUDY    38  30  73 SE7       29.64S
WESTMINSTER*   CLOUDY    36  34  93 SE8       29.66F

$$

MDZ501>502-090400-
WESTERN MARYLAND

CITY           SKY/WX    TMP DP  RH WIND       PRES   REMARKS
OAKLAND*       CLOUDY    28  27  93 W6        29.54S
CUMBERLAND*    CLOUDY    34  34 100 CALM      29.67S

$$

VAZ025>031-090400-
SHENANDOAH VALLEY

CITY           SKY/WX    TMP DP  RH WIND       PRES   REMARKS
WINCHESTER*    LGT RAIN  39  32  75 S5        29.63F
FRONT ROYAL*   CLOUDY    37  32  81 SW5       29.63S
LURAY*         DRIZZLE   36  34  93 CALM      29.62F
NEW MARKET*    CLOUDY    33  33  96 CALM      29.62F
STAUNTON*      CLOUDY    38  35  90 CALM      29.63F
WAYNESBORO*    CLOUDY    34  32  92 CALM      29.61S

$$

WVZ021-048>050-054>055-090400-
EASTERN WEST VIRGINIA PANHANDLE

CITY           SKY/WX    TMP DP  RH WIND       PRES   REMARKS
MARTINSBURG    CLOUDY    39  28  64 S6        29.64S
PETERSBURG*    CLOUDY    35  33  93 CALM      29.62F

$$

VAZ036>039-050-090400-
CENTRAL FOOTHILLS

CITY           SKY/WX    TMP DP  RH WIND       PRES   REMARKS
CHARLOTTESVILL LGT RAIN  38  34  85 NE5       29.64F
CULPEPER*      DRIZZLE   40  32  72 CALM      29.67S
ORANGE*        DRIZZLE   39  37  93 CALM      29.67F
GORDONSVILLE*  CLOUDY    38  38  99 CALM      29.65S FOG
WARRENTON*     CLOUDY    40  35  81 SE7       29.66F

$$

VAZ055>057-090400-
NORTH AND CENTRAL PIEDMONT

CITY           SKY/WX    TMP DP  RH WIND       PRES   REMARKS
FREDERICKSBRG* LGT RAIN  38  35  89 SE6       29.68F
STAFFORD*      CLOUDY    38  33  83 SE6       29.72F

$$

NCZ024-NYZ072-PAZ021-071-VAZ022-071-090400-
OTHER REGIONAL OBSERVATIONS

CITY           SKY/WX    TMP DP  RH WIND       PRES   REMARKS
NEW YORK CITY  CLOUDY    28  22  78 NE6       29.82S
PHILADELPHIA   LGT SNOW  33  27  78 SE9       29.76F WCI  25
PITTSBURGH     CLOUDY    33  30  88 SW5       29.59S
ROANOKE        FAIR      32  29  88 W6        29.65F
RICHMOND       CLOUDY    38  34  85 SE7       29.68F
RALEIGH        CLOUDY    38  37  97 CALM      29.67F

$$

ANZ530>537-090400-
MARINE OBSERVATIONS

STATION/POSITION TIME  TEMP    WIND        PRES
                       AIR SEA DIR/SP/G
                 (UTC) (F)     (DEG/KT/KT) (MB)
THOMAS PT LIGHT  NOT AVBL
BALT KEY BRIDGE  0200   39     140/ 14/ 15 1005.9F
COVE POINT       0200   38     170/ 14/ 16 1007.0F
LEWISETTA        0200   40 41  150/  6/  7 1006.0F
SOLOMONS ISLAND  0200   39 41  130/ 10/ 11   N/A
PINEY POINT      0200          150/ 14/ 15   N/A

$$




USA.gov is the U.S. government's official web portal to all federal, state and local government web resources and services.